Погода в Юловой Мазе

Россия / Саратовская область     52°20′39″N   47°28′20″E
темп.,
°C
ветер,
м/с
пор.,
м/с
влажн.,
%
обл.,
%
осадки,
мм/ч
давл.,
гПа
погр.,
м
19 апреля, пн
пн1901:00+10ссв51159100 0.1 1017250
04:00+9св61166100 0.1 1018359
07:00+7всв6137199 0.0 1018463
10:00+9всв8116378 0.0 1019683
13:00+11всв81056100 0.0 10191030
16:00+10в81069100 0.0 10191117
19:00+6в81489100 0.3 1020567
22:00+4в91485100 1.3 1021661
20 апреля, вт
вт2001:00+3в81486100 0.1 1022609
04:00+3в81487100 0.4 1022686
07:00+3в91585100 0.2 1023684
10:00+3в91575100 0.6 1024738
13:00+6вюв101462100 0.0 1024886
16:00+6в8156899 0.0 1022954
19:00+7вюв91662100 0.0 1021933
22:00+7вюв101860100 0.3 1020884
21 апреля, ср
ср2101:00+5вюв101972100 0.6 1019785
04:00+4юв112086100 3.5 1018728
07:00+3юв112090100 2.4 1018760
10:00+4юв101889100 3.1 1019709
13:00+3ююв81594100 1.2 1020685
16:00+4ююв71394100 1.6 1020602
19:00+4ююв61194100 0.0 1021498
22:00+4юв4996100 0.1 1022397
22 апреля, чт
чт2201:00+4юв4898100 0.1 1022360
04:00+4юв3898100 0.2 1022356
07:00+5юв3898100 0.7 1023315
10:00+6ююв3695100 0.7 1024335
13:00+8ююв3590100 0.0 1024501
16:00+11юв3478100 0.0 1024596
19:00+10вюв4776100 0.0 1024227
22:00+6вюв388495 0.0 1025197
23 апреля, пт
пт2301:00+5вюв269610 0.0 1025139
04:00+4в2397100 0.0 102577
07:00+5в239570 0.0 1025164
10:00+8в338155 0.0 1024504
13:00+11вюв447112 0.0 1023669
16:00+12в446746 0.0 1022938
19:00+11в347264 0.0 1021759
22:00+10вюв127397 0.0 102030